www.pogodaiklimat.ru

Погода и климат >> Архив погоды >> Россия >> Краснодарский край >> Геленджик


АРХИВ ПОГОДЫ в Геленджике

Время (UTC), дата Ветер
(напр.,м/с)
 
Видим.   Явления Облачность Т
(С)
Тd
(С)
f
(%)
Тe
(С)
Тes
(С)
Комфортность P
(гПа)
Po
(гПа)
Тmin
(С)
Tmax
(С)
R
(мм)
S
(см)
03 17.02 СЗ 1 10 км ясно -4.8 -10.2 66 -7 -7 прохладно 1030.7 1028.7 -5.8 4
06 17.02 СВ 1 50 км ясно -1.8 -11.9 46 -3 -1 по сезону 1030.3 1028.4
09 17.02 СЗ 1 50 км ясно +1.7 -13.5 31 +1 +9 опасность
простуды
1030.1 1028.2
12 17.02 З 2 50 км ясно +2.4 -10.4 38 0 +4 по сезону 1028.9 1027.0
15 17.02 З 1 50 км ясно +1.2 -10.4 42 0 0 по сезону 1029.0 1027.1 +2.7
18 17.02 В 1 10 км ясно -1.0 -9.7 52 -2 -2 по сезону 1029.8 1027.8
21 17.02 В 2 10 км ясно +0.4 -6.1 62 -3 -3 по сезону 1029.6 1027.7
00 18.02 ЮВ 4-10
{10}
10 км 8/8 600 м
[Cb calv]
+2.8 -5.1 56 -1 -1 по сезону 1028.7 1026.8
03 18.02 ЮВ 5-10
{12}
10 км 6/5 600 м
[Sc Ac trans]
+3.7 -3.7 58 -1 -1 по сезону 1027.4 1025.5 -1.3 4
06 18.02 ЮВ 4-10
{12}
50 км 10/10 1000 м
[Sc]
+4.5 -2.8 59 +1 +1 по сезону 1027.1 1025.3
09 18.02 ЮВ 4
{12}
50 км 10/8 1000 м
[Sc Ac trans]
+5.0 -2.1 60 +1 +2 по сезону 1026.5 1024.6
12 18.02 ЮВ 4-10
{10}
50 км 10/8 1000 м
[Sc Ac trans]
+5.2 -0.4 67 +1 +2 по сезону 1025.2 1023.3
15 18.02 ЮВ 2
{11}
50 км 10/10 1000 м
[Sc]
+5.2 -0.6 66 +3 +3 по сезону 1025.5 1023.6 +5.9
18 18.02 ЮВ 3 10 км 8/8 1000 м
[Sc]
+5.5 -0.8 64 +3 +3 тепло 1025.8 1023.9
21 18.02 В 2 10 км 8/8 1000 м
[Sc]
+5.6 +0.2 68 +3 +3 тепло 1026.4 1024.5
00 19.02 В 1 10 км 3/3 1000 м
[Cu hum]
+5.5 +1.0 73 +5 +5 тепло 1026.7 1024.8
03 19.02 ЮВ 3
{10}
10 км 8/4 600 м
[Sc Ac trans Ci fib]
+7.1 +3.4 77 +4 +4 тепло 1027.4 1025.5 +5.2
06 19.02 ЮВ 2 20 км {ливн. осадки} 10/10 300 м
[Cb cap]
+7.3 +3.9 79 +5 +5 тепло 1028.8 1026.9
09 19.02 ЮВ 3 20 км 10/8 600 м
[Sc Ac und]
+8.1 +3.7 74 +6 +6 тепло 1029.5 1027.6
12 19.02 ЮВ 3 50 км 10/3 600 м
[Sc Ac trans Cc]
+8.6 +4.0 73 +6 +7 тепло 1028.9 1027.0
15 19.02 В 1 50 км 10/1 600 м
[Sc Ac trans Cc]
+7.3 +2.8 73 +7 +7 тепло 1028.7 1026.8 +9.0
18 19.02 СВ 1 10 км 10/0
[Ac As Cc]
+5.6 -0.5 65 +5 +5 тепло 1028.3 1026.4
21 19.02 СВ 2 10 км 4/0
[Ac trans Ci fib]
+5.5 -3.8 51 +4 +4 тепло 1027.6 1025.7
00 20.02 СВ 1 10 км ясно +2.7 -2.9 67 +1 +1 по сезону 1027.0 1025.1
03 20.02 С 1 10 км ясно +2.0 -3.4 67 +1 +1 по сезону 1025.6 1023.7 +1.9
06 20.02 С 1 50 км 8/3 600 м
[Sc Ac trans Cc]
+4.2 -3.1 59 +3 +4 тепло 1025.2 1023.3 +1.2
09 20.02 ЮВ 2 10 км 4/0
[Ci fib]
+10.7 -3.2 38 +10 +17 тепло 1023.8 1021.9
12 20.02 ЮВ 3 50 км 10/0
[Cc]
+10.0 -1.8 44 +8 +11 тепло 1021.2 1019.4
15 20.02 В 1 50 км 10/0
[Cc]
+9.9 -8.8 26 +10 +10 тепло 1019.4 1017.6 +11.5
18 20.02 В 1 10 км ясно +8.4 -9.9 26 +9 +9 тепло 1018.4 1016.6
21 20.02 В 1 10 км ясно +5.4 -8.7 35 +5 +5 тепло 1017.2 1015.3
00 21.02 ЮВ 2 10 км 10/10 600 м
[Sc]
+8.1 +3.2 71 +6 +6 тепло 1016.7 1014.8
03 21.02 ЮВ 3 10 км слабый ливневой дождь 10/10 600 м
[Cb cap]
+7.2 +5.5 89 +4 +4 тепло 1016.2 1014.4 +4.6
06 21.02 ЮЗ 1 20 км {ливн. осадки} 10/10 600 м
[Cb cap]
+6.9 +3.3 78 +6 +6 тепло 1016.5 1014.6
09 21.02 ЮВ 3 20 км 4/3 600 м
[Cb calv Cc]
+8.3 +3.6 72 +6 +10 тепло 1015.9 1014.1
12 21.02 ЮВ 5-11
{11}
20 км 10/10 600 м
[Cb calv]
+7.2 +2.9 74 +3 +3 по сезону 1014.9 1013.1
15 21.02 З 2-10
{12}
10 км слабый ливневой дождь 10/10 600 м
[Cb cap]
+6.3 +3.4 82 +4 +4 по сезону 1014.0 1012.1 +10.1 2
18 21.02 ЮЗ 2
{11}
10 км слабый ливневой дождь 10/10 300 м
[Cb cap]
+6.3 +4.2 86 +4 +4 тепло 1013.6 1011.8
21 21.02 С 2 10 км {ливн. осадки} 10/10 300 м
[Cb cap]
+7.1 +3.9 80 +5 +5 тепло 1013.4 1011.6
00 22.02 ЮВ 2
{10}
10 км {ливн. осадки} 6/5 600 м
[Sc diur, vesp Ac trans]
+7.4 +3.6 77 +5 +5 тепло 1013.1 1011.3
03 22.02 ЮВ 6-13
{16}
10 км 10/10 300 м
[Cb calv]
+7.6 +4.4 80 +3 +3 тепло 1012.2 1010.3 +6.2 0.3
09 22.02 ЮВ 7-14
{15}
10 км слабый ливневой дождь 10/10 300 м
[Cb cap]
+7.7 +5.6 87 +3 +3 по сезону 1009.8 1008.0
12 22.02 В 2
{15}
2000 м ливневой дождь 10/10 300 м
[Cb cap]
+6.8 +5.3 90 +4 +4 по сезону 1008.6 1006.8
15 22.02 З 5-11
{12}
10 км слабый ливневой дождь 10/10 300 м
[Cb cap]
+6.0 +3.7 85 +2 +2 по сезону 1009.1 1007.2 +7.9 14
18 22.02 СЗ 1
{11}
10 км {ливн. осадки} 10/10 300 м
[Cb cap]
+5.1 +2.5 83 +4 +4 тепло 1012.8 1010.9
21 22.02 З 3 10 км слабая крупа {ливн. осадки} 10/10 300 м
[Cb cap]
+6.4 +2.5 76 +3 +3 тепло 1014.7 1012.9
00 23.02 ЮЗ 4
{11}
10 км {ливн. осадки} 8/6 600 м
[Sc Ac trans Ci fib]
+7.1 +4.1 81 +4 +4 тепло 1015.4 1013.5
03 23.02 СЗ 1 10 км 8/6 600 м
[Sc Ac trans Ci fib]
+7.0 +3.9 81 +6 +6 тепло 1016.0 1014.2 +4.8
06 23.02 ЮВ 6-13
{13}
20 км {ливн. осадки} 10/8 300 м
[Cb cap Ac As Cc]
+7.0 +3.7 79 +3 +3 тепло 1015.5 1013.7
09 23.02 ЮВ 7-17
{20}
10 км в посл. час ливневой дождь 10/10 300 м
[Cb cap]
+7.1 +3.5 78 +2 +2 по сезону 1013.8 1012.0
12 23.02 ЮВ 8-17
{20}
10 км слабый ливневой дождь 10/10 300 м
[Cb cap]
+7.7 +4.9 82 +3 +3 по сезону 1012.7 1010.8
15 23.02 ЮВ 7-16
{18}
10 км слабый ливневой дождь 10/10 300 м
[Cb cap]
+7.8 +5.1 83 +3 +3 по сезону 1011.6 1009.7 +7.9 1
18 23.02 ЮВ 6-14
{19}
10 км слабый ливневой дождь 10/10 300 м
[Cb cap]
+8.7 +5.2 79 +5 +5 тепло 1012.0 1010.1
21 23.02 ЮВ 4
{14}
10 км в посл. час ливневой дождь 10/10 300 м
[Cb cap]
+8.5 +6.0 84 +5 +5 тепло 1013.6 1011.8
00 24.02 В 3 10 км {ливн. осадки} 10/10 300 м
[Cb cap]
+8.2 +6.0 86 +5 +5 тепло 1014.5 1012.6

 

Местоположение метеостанции Геленджик (Краснодарский край, Россия): широта 44.57 долгота 38.08 высота над уровнем моря 15 м.

В архиве по умолчанию представлена погода в Геленджике за последнюю неделю. Архивные данные за месяц целиком и за предыдущие месяцы, начиная с января 2011 года, Вы можете получить, выбрав интересующий диапазон дат из раскрывающегося списка и нажав кнопку "Ввод!".

Внимание! Время в таблицах - всемирное. Для получения местного времени необходимо прибавить поправку, которая в Геленджике равна 3 ч.

Смотрите также архив погоды в соседних городах и на ближайших метеорологических станциях:

Погода в Новороссийске (Краснодарский край, Россия) (25 км)
Погода в Крымске (Краснодарский край, Россия) (39 км)
Погода в Джубге (Краснодарский край, Россия) (57 км)
Погода в Анапе (Краснодарский край, Россия) (72 км)
Погода в Славянске-на-Кубани (Краснодарский край, Россия) (79 км)
Погода в Горячем Ключе (Краснодарский край, Россия) (81 км)
Погода в Краснодаре (Краснодарский край, Россия) (92 км)
Погода в Туапсе (Краснодарский край, Россия) (95 км)
Погода в Горном (Краснодарский край, Россия) (100 км)
Погода в Темрюке (Краснодарский край, Россия) (100 км)

Пояснения к столбцам:

Ветер - указаны скорость ветра в м/с - средняя за 10 мин, порывы в срок и между сроками (в фигурных скобках) и направление, откуда дует ветер: С - северный, СВ - северо-восточный, В - восточный, ЮВ - юго-восточный, Ю - южный, ЮЗ - юго-западный, З - западный, СЗ - северо-западный.
Видимость - горизонтальная дальность видимости в метрах или километрах. При видимости от 1 до 10 км при отсутствии осадков обычно наблюдается дымка, при ухудшении видимости до 1 км и менее - туман. В сухую погоду видимость может ухудшаться дымом, пылью или мглою.
Явления - указаны атмосферные явления, наблюдавшиеся в срок или в последний час перед сроком; фигурными скобками обозначены явления, наблюдавшиеся между сроками (за 1-3 часа до срока); квадратными скобками обозначены град или гололедные отложения с указанием их диаметра в мм.
Облачность - указаны через наклонную черту общая и нижняя облачность в баллах и высота нижней границы облаков в метрах; квадратными скобками обозначены формы облаков: Ci - перистые, Cs - перисто-слоистые, Cc - перисто-кучевые, Ac - высококучевые, As - высокослоистые, Sc - слоисто-кучевые, Ns - слоисто-дождевые, Cu - кучевые, Cb - кучево-дождевые. Подробнее классификацию облаков см. в Атласе облаков (PDF).
T - Температура воздуха - температура, измеренная на высоте 2 м над землей.
Td - Температура точки росы - температура, при понижении до которой содержащийся в воздухе водяной пар достигнет насыщения.
f - Относительная влажность воздуха - влажноcть воздуха, измеренная на высоте 2 м над землей.
Te - Эффективная температура - температура, которую ощущает одетый по сезону человек в тени. Характеристика душности погоды. При расчете учитывается влияние влажности воздуха и скорости ветра на теплоощущения человека.
Tes - Эффективная температура на солнце - температура, которую ощущает человек, с поправкой на солнечный нагрев. Характеристика знойности погоды. Зависит от высоты солнца над горизонтом, облачности и скорости ветра. Ночью, в пасмурную погоду, а также при ветре 12 м/с и более поправка равна нулю.
P - Атмосферное давление - приведенное к уровню моря атмосферное давление.
Po - Атмосферное давление - измеренное на уровне метеостанции атмосферное давление.
Tmin - Минимальная температура - минимум температуры воздуха на высоте 2 м над землей.
Tmax - Максимальная температура - максимум температуры воздуха на высоте 2 м над землей.
R - Количество осадков - Количество выпавших осадков, мм. При наведении курсора мыши на число - период времени, за который выпало указанное количество осадков.
S - Снежный покров - Высота снежного покрова, см. При наведении курсора мыши на число - состояние снежного покрова и степень покрытия местности в баллах.